sat.trackr.live / text

‹ back to catalog

STARLINK-1591

NORAD 46045 · 2020-055U

PAYLOAD ACTIVE UNKNOWN

§ Identity

Operator
Country
US
Launch date
2020-08-07
Launch site
AFETR
Launch vehicle
Mass (kg)
RCS (m²)

Purposes: comms

External: N2YO · Heavens-Above · Gunter

§ Orbital elements

Epoch: 2026-09-20T03:19:49.548288Z

Period
94.01 min
Inclination
53.1606°
Eccentricity
0.0001380
Mean motion
15.31708061 rev/d
Perigee alt
469.8 km
Apogee alt
471.7 km
Semi-major
6,848.9 km
B*
4.1145e-5
RAAN
302.4866°
Arg perigee
87.9179°
Mean anomaly
272.1980°
Rev number
33,865

§ Raw data

STARLINK-15911 46045U 20055U   26263.13876792  .00000912  00000+0  41145-4 0  99932 46045  53.1606 302.4866 0001380  87.9179 272.1980 15.31708061338650

JSON: /api/v1/satellites/46045 · /tle

For live sub-satellite position, see the globe view (requires WebGL).

§ Visibility from observer

Set your observer location to see the next 7 days of passes ≥ 10°. The values pass through the URL so the page stays shareable.

No JS? Fill the form by hand. The geolocation button needs JavaScript.